Simultaneous Nadir Overpasses (SNOs) Predictions

Prediction of SNOs between GOES-17 and NOAA-19 Satellite Orbit:

Table of predicted SNOs for the next 14.0 days since TLE Epoch: 11/25/2023
Index Date Time (GOES-17) GOES-17 Lat,Lon NOAA-19 Lat,Lon Distance(km) Time Diff (sec)
1 11/25/2023 03:42:51 0.02,-104.65 0.58,-102.18 282.01 9
2 11/27/2023 16:01:24 -0.01,-104.68 0.51,-106.87 250.33 80
3 11/28/2023 15:51:55 0.00,-104.68 -0.17,-103.92 87.21 80
4 11/29/2023 15:39:47 0.02,-104.68 -0.84,-100.96 424.79 80
5 12/01/2023 04:11:54 -0.03,-104.66 -0.92,-108.67 456.87 80
6 12/02/2023 03:59:46 -0.03,-104.66 -0.25,-105.71 119.51 80
7 12/03/2023 03:44:57 -0.04,-104.66 0.42,-102.76 217.99 80
8 12/05/2023 16:04:38 0.05,-104.69 0.70,-107.43 313.13 80
9 12/06/2023 15:55:09 0.05,-104.69 0.01,-104.47 24.83 80
10 12/07/2023 15:43:01 0.05,-104.70 -0.68,-101.52 362.70 80
